This demonstration page uses our WeatherBlox Daily Observations layout. Learn more.

Left ArrowRight Arrow

34.02893, -84.19858

Hourly Observations for March 26, 2022

Temp ( °F °C ) Dew Point ( °F °C ) Humidity (%) Winds ( mph kmh ) Pressure ( in mb ) Visibility ( mi km ) Precip ( " mm )
12:53 am 00:53 Clear 50 10 37 2.8 61 61 WNW 9 15 29.96 1014 10 16 0.00 0.00
1:53 am 01:53 Clear 49 9.4 37 2.8 64 64 NW 9 15 29.95 1014 10 16 0.00 0.00
2:53 am 02:53 Clear 48 8.9 37 2.8 66 66 WNW 8 13 29.93 1014 10 16 0.00 0.00
3:53 am 03:53 Clear 46 7.8 37 2.8 71 71 W 7 11 29.91 1013 10 16 0.00 0.00
4:53 am 04:53 Clear 46 7.8 37 2.8 71 71 W 7 11 29.91 1013 10 16 0.00 0.00
5:53 am 05:53 Clear 46 7.8 37 2.8 71 71 W 9 15 29.91 1013 10 16 0.00 0.00
6:53 am 06:53 Clear 46 7.8 37 2.8 71 71 WNW 9 15 29.92 1013 10 16 0.00 0.00
7:53 am 07:53 Sunny 45 7.2 37 2.8 74 74 WNW 10 17 29.95 1014 10 16 0.00 0.00
8:53 am 08:53 Sunny 48 8.9 34 1.1 58 58 WNW 13 20 29.96 1015 10 16 0.00 0.00
9:53 am 09:53 Sunny 50 10 31 -0.6 48 48 WNW 16 26 29.98 1015 10 16 0.00 0.00
10:53 am 10:53 Sunny 52 11.1 24 -4.4 34 34 NW 15 24 29.98 1015 10 16 0.00 0.00
11:53 am 11:53 Sunny 55 12.8 25 -3.9 31 31 WNW 17 28 29.96 1015 10 16 0.00 0.00
12:53 pm 12:53 Sunny 57 13.9 25 -3.9 29 29 WNW 17 28 29.95 1014 10 16 0.00 0.00
1:53 pm 13:53 Sunny 59 15 24 -4.4 26 26 W 18 30 29.92 1013 10 16 0.00 0.00
2:07 pm 14:07 Sunny 60 15.6 22 -5.6 23 23 NW 25 41 29.90 1013 10 16 0.00 0.00
2:53 pm 14:53 Sunny 61 16.1 23 -5 23 23 W 21 33 29.89 1012 10 16 0.00 0.00
3:53 pm 15:53 Sunny 62 16.7 21 -6.1 21 21 W 18 30 29.87 1012 10 16 0.00 0.00
4:53 pm 16:53 Sunny 61 16.1 20 -6.7 20 20 WNW 23 37 29.86 1011 10 16 0.00 0.00
5:53 pm 17:53 Sunny 61 16.1 20 -6.7 20 20 W 12 19 29.86 1011 10 16 0.00 0.00
6:53 pm 18:53 Sunny 60 15.6 18 -7.8 19 19 WNW 16 26 29.87 1012 10 16 0.00 0.00
7:53 pm 19:53 Sunny 57 13.9 17 -8.3 21 21 W 14 22 29.89 1012 10 16 0.00 0.00
8:53 pm 20:53 Clear 56 13.3 15 -9.4 20 20 W 14 22 29.90 1013 10 16 0.00 0.00
9:53 pm 21:53 Clear 55 12.8 15 -9.4 20 20 W 13 20 29.93 1013 10 16 0.00 0.00
10:53 pm 22:53 Clear 54 12.2 15 -9.4 21 21 WNW 13 20 29.95 1014 10 16 0.00 0.00
11:53 pm 23:53 Clear 53 11.7 15 -9.4 22 22 WNW 12 19 29.96 1015 10 16 0.00 0.00

Powered by AerisWeather